Wind_Speed
14 13 14 14 14 12 7 5 2 2 3 3 3 3 2 4 5 7 8 7 5 5 7 10 9 8 10 11 11 13 10 7 4 3 6 9 18 20 17 22 26 25 24 24 25 24 23 22 22 22 22 21 21 22 23 23 22 20 19 19 19 20 18 18 18 17 17 17 17 16 16 16 16 16 15 15 15 14 14 14 14 14 14 14 14 13 13 13 12 12 11 10 10 10 10 10 10
14 14 14 13 16 11 2 3 3 3 4 2 2 2 1 1 4 10 9 6 4 8 10 10 9 11 15 13 11 13 13 12 12 10 11 19 20 17 20 23 24 24 23 25 26 24 22 22 22 22 22 21 21 21 22 23 21 20 19 18 19 19 18 18 17 16 16 16 16 16 16 16 16 15 15 15 14 14 14 14 14 13 14 14 13 13 13 12 12 11 11 10 9 9 9 9 9
15 14 14 13 12 7 1 2 3 3 2 1 2 2 2 1 4 12 11 9 8 12 10 10 10 8 11 12 11 12 12 13 17 15 13 22 18 17 24 24 25 25 23 25 26 23 22 23 23 23 22 21 20 21 22 22 21 19 18 17 18 19 18 17 17 16 16 16 16 16 16 15 15 15 15 14 14 13 14 14 14 13 13 13 13 13 13 12 12 11 11 10 9 9 9 9 8
13 12 13 11 4 4 2 1 3 2 3 1 4 5 5 4 7 12 12 11 11 11 9 9 9 7 9 13 12 12 12 13 17 16 13 18 19 23 26 24 26 25 24 24 24 22 22 25 24 23 21 20 20 20 21 20 19 18 17 17 19 18 18 17 16 16 16 15 15 15 15 15 15 15 14 14 13 13 13 13 13 13 12 12 12 12 13 12 12 11 10 10 10 10 9 9 8
11 10 13 10 2 2 2 2 3 1 4 2 5 8 8 8 10 12 11 11 10 9 9 9 8 8 11 11 8 9 11 13 16 17 14 19 23 26 25 24 25 24 24 23 23 22 23 25 24 24 22 21 20 20 20 19 19 18 18 18 18 18 17 17 16 15 15 15 15 14 14 14 14 14 14 14 13 13 13 13 13 13 12 12 12 12 13 12 11 11 11 10 10 10 9 9 9
10 8 11 10 2 2 3 4 5 3 5 2 5 9 10 11 11 12 12 11 9 9 8 8 9 11 11 11 10 8 11 12 14 16 18 23 26 26 25 24 23 22 23 22 23 23 25 25 23 23 21 21 20 20 20 19 19 18 18 18 18 17 17 16 15 15 14 14 14 13 13 14 14 14 13 13 13 13 13 13 13 12 12 12 12 12 12 11 11 11 11 11 10 10 10 9 9
9 5 6 7 3 2 4 6 4 3 6 5 7 10 12 11 11 11 11 10 9 8 7 8 10 11 10 9 10 10 14 14 14 17 21 25 26 26 25 24 23 23 22 21 21 23 26 25 23 21 20 21 20 20 20 19 19 19 18 18 17 17 16 15 15 14 13 13 13 12 13 13 13 13 13 12 12 12 12 13 12 12 12 12 12 11 11 11 11 12 11 11 10 10 9 9 8
10 5 2 4 4 3 5 6 0 5 7 9 10 11 12 11 10 10 9 7 8 7 7 9 9 9 11 11 10 11 16 17 17 22 25 26 26 25 23 24 25 24 21 20 21 24 26 24 22 21 20 21 20 20 19 19 19 18 17 17 17 16 15 15 14 14 13 12 12 12 12 12 12 12 12 12 12 12 12 12 12 11 12 12 11 11 10 10 11 11 11 11 10 9 9 9 9
10 6 2 3 5 3 5 3 4 6 8 10 10 11 10 10 10 10 9 7 8 9 10 11 8 9 12 14 12 11 14 18 23 26 25 25 25 23 21 21 23 26 24 21 22 25 26 24 22 21 21 21 20 19 19 19 19 18 17 16 16 16 15 14 13 13 12 12 11 11 11 11 11 12 12 11 11 11 11 11 11 11 11 11 10 10 10 10 10 10 10 10 10 9 9 9 9
8 6 4 3 4 5 4 2 5 7 9 10 10 10 9 9 7 9 9 9 10 10 12 11 9 12 14 13 11 10 14 20 26 25 24 25 24 22 22 21 20 24 26 24 24 25 25 24 23 21 21 21 20 19 19 18 18 18 17 16 16 16 15 14 13 12 12 11 10 10 11 11 11 11 11 11 10 10 10 10 10 10 9 9 9 10 10 10 10 10 9 9 9 9 9 9 8
5 5 5 3 4 6 1 4 5 7 10 10 11 9 8 7 6 8 9 10 10 10 13 10 10 14 14 12 9 13 20 23 24 25 25 24 22 21 23 23 20 20 23 25 24 24 25 24 23 22 21 20 20 19 19 18 18 18 17 16 16 15 14 13 13 12 11 10 10 10 10 10 10 10 10 10 10 9 9 9 9 9 9 8 9 9 9 9 9 9 9 9 9 8 8 8 8
4 4 4 3 5 5 1 4 7 8 9 10 10 8 8 7 6 8 9 10 10 10 11 8 11 13 12 10 8 15 21 21 22 24 24 23 21 21 22 21 21 20 22 24 23 23 24 23 22 22 21 20 20 19 18 19 18 17 17 16 16 15 14 13 12 11 11 10 10 10 10 9 9 9 9 9 9 8 8 8 8 8 8 8 8 8 8 8 8 8 8 8 8 8 8 7 8
5 4 3 3 6 6 1 5 6 7 8 9 9 9 8 7 7 8 8 9 8 10 9 7 11 11 10 10 9 13 17 20 22 23 24 22 21 21 20 21 21 21 22 23 23 23 23 23 22 22 22 20 20 19 18 18 18 17 17 16 15 15 13 13 12 11 10 10 9 9 9 9 9 8 8 8 8 7 7 7 7 7 7 8 8 7 8 7 7 7 6 7 7 7 7 7 8
6 4 4 4 7 6 2 4 4 5 8 9 8 8 7 6 8 8 8 9 7 9 9 8 12 12 11 10 9 10 14 21 23 23 23 21 21 21 21 21 21 21 22 22 23 23 23 22 22 22 22 21 20 19 18 18 18 17 17 16 15 14 13 12 12 11 10 9 9 9 8 8 9 8 7 7 7 6 6 6 6 6 6 7 7 6 7 6 6 6 5 5 6 6 6 7 7
6 4 4 4 6 4 0 3 5 5 8 9 8 8 7 7 8 7 7 8 9 10 9 9 10 9 10 11 9 11 18 24 24 23 23 21 21 20 21 21 22 22 21 22 23 23 22 22 22 22 22 21 21 19 18 18 17 18 17 16 15 14 13 12 11 10 10 9 9 8 8 8 8 7 6 6 6 6 6 5 3 5 5 5 5 5 5 5 5 4 4 4 5 6 6 7 6
4 5 3 3 5 6 4 4 9 4 6 10 8 6 8 9 5 7 7 6 9 8 7 8 7 5 10 13 14 19 25 27 25 23 22 21 21 20 21 21 21 21 21 21 22 22 22 22 22 22 22 21 20 19 19 18 17 18 17 16 15 14 13 12 11 10 9 9 8 8 7 7 7 6 5 5 5 5 5 4 2 3 4 4 4 4 4 4 4 3 3 3 4 5 5 5 6
3 4 3 3 3 6 7 6 9 2 7 9 8 6 8 10 5 7 6 6 10 7 6 8 5 2 7 15 22 27 29 28 26 25 23 21 21 20 21 21 21 19 20 21 21 22 22 22 22 21 21 21 19 18 18 18 18 19 17 16 15 14 13 12 11 10 9 8 8 8 7 7 7 5 5 4 4 3 3 3 2 2 3 3 3 3 3 3 3 3 3 3 3 3 3 3 3
3 3 4 3 3 6 11 5 7 4 8 7 7 5 6 10 7 6 6 7 10 8 8 8 7 6 10 20 29 30 30 30 27 25 24 22 20 20 20 21 21 19 19 21 20 21 21 22 21 21 21 21 20 19 18 18 19 19 17 16 15 14 13 12 11 10 10 8 8 8 7 7 7 5 5 5 4 3 2 1 1 1 2 2 3 4 4 4 4 4 4 3 4 3 1 0 2
6 5 5 2 2 11 11 3 5 4 6 5 7 5 4 7 7 4 5 8 9 8 9 9 10 11 15 23 29 31 29 30 28 25 24 22 20 20 20 20 22 21 20 20 20 21 21 21 21 20 21 22 20 19 18 18 20 19 16 16 15 14 14 12 12 11 10 9 9 8 7 6 7 6 6 6 5 5 2 1 1 1 2 3 4 4 4 5 5 6 5 4 4 3 1 0 2
7 7 5 2 6 15 6 3 4 5 4 4 6 6 5 5 6 3 5 8 7 7 9 10 12 13 17 21 25 29 29 28 28 25 23 22 21 21 21 21 21 22 22 21 20 23 23 21 20 20 21 22 20 19 18 19 20 19 17 16 15 15 14 13 12 11 10 10 9 9 7 6 7 6 6 6 5 5 3 1 1 2 2 3 3 1 2 3 3 4 4 3 3 2 3 2 1
6 8 5 3 11 12 3 2 4 5 4 5 5 5 7 7 6 5 5 7 6 7 9 10 13 16 19 20 22 26 26 26 27 26 24 22 21 21 20 21 21 21 22 22 20 22 23 23 22 21 23 23 21 20 18 19 20 18 17 17 16 15 15 14 12 12 11 10 10 9 8 7 7 6 6 6 5 5 4 2 1 2 2 3 1 1 1 1 1 2 2 2 2 2 3 2 1
7 9 5 4 11 6 4 1 5 4 2 3 2 3 6 6 7 6 5 3 2 5 10 11 14 18 20 21 21 23 24 24 24 24 25 23 22 21 20 20 20 20 21 22 23 22 22 25 24 21 23 23 20 19 18 18 19 18 17 17 16 15 15 14 13 12 11 10 10 9 8 8 7 6 6 6 5 5 5 3 2 3 2 1 2 1 0 1 1 2 1 1 1 2 3 2 2
8 8 7 7 11 6 2 1 3 1 3 1 1 3 4 5 5 6 5 3 5 6 9 13 15 18 20 22 21 22 23 23 23 23 24 24 23 22 21 22 21 21 21 21 24 24 23 25 24 21 22 22 21 18 17 18 18 17 17 16 16 15 14 13 13 12 11 11 10 9 8 8 7 7 7 6 6 5 5 4 2 3 2 2 2 1 1 1 2 2 2 2 2 3 2 2 1
11 9 9 9 9 8 4 2 3 4 4 3 3 1 3 4 3 5 6 6 6 7 9 13 16 18 20 22 22 22 23 23 23 24 25 24 23 22 21 22 21 20 20 20 22 24 24 24 23 22 21 23 22 18 18 19 19 17 16 17 16 14 14 13 12 11 10 11 10 9 8 7 7 7 7 6 6 5 4 4 3 3 2 1 0 1 2 2 2 2 2 1 2 2 2 2 2
14 12 10 8 8 8 7 6 7 7 6 5 5 5 6 4 3 4 7 7 8 8 9 14 17 18 18 20 21 21 21 22 24 26 26 24 24 23 21 21 21 20 20 21 22 22 24 24 24 23 22 23 21 19 18 18 19 18 15 16 15 14 14 12 11 11 10 11 10 9 8 7 7 7 6 6 6 5 4 4 4 3 2 1 0 1 2 2 2 2 2 1 2 3 3 3 3
12 14 12 10 9 8 8 9 10 10 7 6 8 8 7 5 4 5 7 9 9 9 10 15 18 19 18 19 20 20 21 22 22 24 25 24 24 23 22 22 22 22 21 21 21 22 23 24 25 24 23 23 21 19 18 17 18 17 15 15 14 14 14 11 11 11 10 10 10 10 9 7 6 6 6 6 6 5 5 4 4 2 2 1 1 1 1 2 2 2 2 3 3 3 3 4 3
9 12 14 13 11 9 9 10 12 11 9 9 9 8 8 7 6 5 8 11 11 11 13 16 17 18 18 18 18 19 20 22 23 23 23 23 24 24 23 22 22 22 22 22 21 21 23 24 25 24 23 23 21 20 18 17 17 16 15 14 13 14 13 11 11 11 10 10 10 10 10 8 6 5 5 6 6 5 5 4 4 3 2 1 1 1 1 1 1 2 2 3 3 2 3 3 3
9 8 11 14 13 12 12 12 13 11 10 10 10 10 9 8 8 6 8 13 12 12 14 16 16 16 18 19 18 17 17 21 24 23 22 22 22 23 23 22 22 22 22 23 21 20 23 24 24 25 24 23 22 20 19 17 16 16 16 14 14 13 13 12 11 11 10 10 10 10 10 9 8 5 3 5 6 5 5 5 4 3 3 2 1 1 2 2 1 2 2 3 3 3 3 2 2
12 11 10 12 13 14 16 15 14 12 10 10 10 10 10 10 10 8 9 13 13 13 14 15 15 15 16 18 17 15 16 20 23 22 23 23 22 23 23 22 23 22 22 22 22 22 23 24 24 24 24 23 22 20 19 17 16 16 16 15 14 13 13 13 12 11 11 10 10 10 10 9 9 7 5 6 6 5 5 5 5 4 3 2 1 1 3 2 1 2 2 3 3 3 3 2 2
13 12 10 11 12 13 16 15 15 15 12 12 10 7 8 11 12 11 10 13 13 13 15 13 13 14 15 16 16 16 17 19 20 22 24 25 24 24 25 24 24 22 21 22 23 23 23 23 23 23 24 23 22 21 19 18 17 16 16 15 14 13 13 13 12 12 11 11 10 10 10 10 10 8 7 7 6 6 6 5 5 4 3 2 2 2 3 2 1 2 2 3 3 3 2 2 1
11 12 10 9 9 10 14 17 17 16 13 13 12 7 6 7 12 13 10 12 13 13 15 13 13 14 14 14 15 17 18 19 22 24 26 26 25 24 25 25 25 23 22 23 24 23 23 23 22 22 24 23 22 21 19 18 17 16 15 15 14 14 13 13 13 12 12 11 11 11 11 11 10 9 8 7 7 7 6 6 5 4 3 2 3 2 2 2 1 2 2 3 3 2 1 1 1
10 11 10 10 10 10 13 17 17 17 13 15 13 7 7 7 11 14 11 12 12 12 15 15 15 15 14 12 13 15 17 19 23 26 26 26 25 24 25 25 25 24 22 23 24 23 23 23 23 22 23 23 22 21 19 17 17 16 15 14 14 14 13 13 13 13 13 12 12 12 12 12 11 11 9 8 7 7 7 6 5 4 3 3 3 1 2 2 2 2 2 3 3 2 1 2 2
10 10 10 11 12 11 11 13 17 17 14 15 15 9 7 6 10 13 13 12 11 11 13 16 16 15 15 12 12 13 15 18 20 23 26 27 25 24 25 26 25 25 23 23 24 24 23 23 23 23 24 24 22 21 19 17 17 16 15 14 14 14 14 13 13 13 13 13 12 12 13 13 12 11 11 9 8 8 7 6 5 5 4 4 3 2 3 2 2 3 2 2 3 2 0 2 1
10 10 11 12 14 13 10 11 15 17 15 14 16 12 9 7 11 12 13 12 11 10 12 15 14 14 14 12 13 13 14 17 18 21 26 27 26 25 25 26 26 25 24 24 25 25 24 23 23 23 24 24 23 22 21 19 17 16 15 15 14 14 14 14 13 13 13 13 13 12 13 13 12 12 11 10 9 8 8 6 5 5 5 4 3 4 4 2 3 2 1 2 2 1 1 2 2
13 12 11 12 13 14 14 12 13 17 16 15 15 13 12 10 11 12 13 12 11 10 11 13 14 14 15 13 14 13 14 16 17 22 28 28 26 26 26 26 27 26 25 25 25 26 24 23 23 22 23 24 23 22 22 20 18 17 16 15 15 14 14 14 14 14 14 13 13 13 13 13 13 13 12 11 10 9 8 8 6 5 5 5 4 5 4 2 3 3 2 1 0 0 1 3 3
16 15 13 12 13 13 14 12 12 15 16 17 16 14 13 14 13 13 14 13 11 10 10 12 13 13 14 14 14 13 15 16 17 24 28 28 27 26 26 26 27 26 25 26 26 26 25 24 24 22 23 25 24 23 23 21 19 18 17 16 16 16 15 15 15 14 14 14 13 14 14 14 13 13 13 12 11 10 9 8 6 6 6 5 5 5 3 2 3 3 2 1 1 2 2 2 2
16 14 14 15 15 13 12 12 12 12 12 15 16 16 15 14 16 16 15 13 12 12 11 12 14 13 13 14 14 14 14 14 17 24 27 27 27 27 26 26 27 27 26 27 27 28 27 25 25 24 23 25 25 25 25 23 21 20 19 19 18 17 16 15 15 15 15 14 14 14 15 14 14 13 13 13 12 11 10 8 6 6 7 6 5 4 4 3 3 4 3 2 2 3 2 2 4
18 14 13 14 14 13 13 15 15 13 10 11 13 16 17 15 16 15 13 14 13 13 12 12 14 14 13 15 15 13 13 13 17 22 25 27 27 27 27 26 28 29 27 28 29 29 28 26 26 25 24 25 25 25 25 24 22 21 20 19 18 17 17 16 16 16 15 14 14 15 15 15 15 14 14 13 12 12 11 9 7 7 7 7 6 5 5 5 5 5 4 3 2 3 1 2 5
18 13 11 12 11 12 14 16 17 14 8 9 14 14 15 15 15 13 11 13 14 14 13 12 13 14 13 15 14 13 15 15 18 21 24 27 28 28 27 26 29 30 29 29 29 29 29 27 27 26 25 25 25 25 24 23 22 21 19 18 18 16 16 17 16 15 15 15 15 16 15 15 16 15 15 14 13 13 11 10 9 8 8 7 7 6 6 6 6 5 4 3 3 3 2 2 2
15 13 11 11 12 12 12 13 16 15 9 9 14 14 13 14 15 14 16 16 14 15 15 14 13 14 14 14 15 15 18 18 20 21 22 25 27 29 27 26 28 29 29 29 29 30 29 28 27 27 26 25 25 25 24 23 21 20 18 17 17 15 15 16 15 15 15 16 16 17 17 17 17 16 15 15 14 14 12 11 10 9 8 8 8 7 7 7 6 5 5 4 4 4 4 5 3
15 17 14 13 15 15 12 12 15 16 13 11 14 12 10 13 15 15 15 16 13 14 17 15 13 15 16 15 16 17 18 18 19 21 22 23 25 28 28 27 28 29 30 31 31 31 30 29 29 28 27 26 25 25 25 22 21 20 19 17 16 16 14 15 16 16 16 17 17 17 18 18 18 16 16 16 15 15 14 12 11 10 9 9 8 8 7 7 7 6 6 5 5 4 2 6 6
14 19 19 16 17 18 16 15 14 12 11 13 14 11 10 13 16 15 14 15 16 15 17 17 14 14 17 18 18 18 18 17 17 20 22 23 24 27 29 28 29 30 30 31 32 31 30 30 30 29 27 26 25 26 26 23 22 22 21 19 18 18 16 16 17 17 17 18 17 17 17 17 18 17 16 16 16 15 15 13 12 11 10 9 8 8 7 7 7 6 6 5 5 4 2 2 5
11 15 20 21 20 18 17 17 14 10 9 11 14 12 10 11 15 18 17 17 19 17 17 17 14 13 15 16 16 18 19 18 18 20 21 23 24 26 28 30 30 30 31 31 31 31 30 30 31 30 28 27 26 26 27 25 23 22 22 21 20 19 18 17 17 17 16 17 17 17 17 17 18 18 17 17 17 16 16 14 13 12 11 10 9 8 8 8 7 6 6 6 5 5 3 1 4
10 12 17 20 21 21 18 17 13 9 9 11 14 14 11 10 12 15 17 19 21 17 16 16 15 15 15 15 16 17 19 19 18 19 22 23 24 26 29 31 32 31 31 31 30 31 31 31 32 31 29 28 27 27 28 27 24 23 23 22 21 20 19 17 16 17 16 15 16 17 17 17 18 19 18 18 18 17 17 15 14 13 12 11 10 10 10 8 6 6 6 6 6 6 6 5 5
12 11 13 15 18 21 20 16 12 10 10 10 14 15 12 10 9 11 14 18 19 16 16 16 15 15 15 14 16 18 19 21 21 21 22 23 24 29 32 33 32 31 31 31 32 32 32 32 32 32 30 28 28 28 29 29 26 24 24 23 22 20 19 17 16 17 16 16 16 17 17 17 18 19 19 18 18 18 18 17 15 14 13 12 12 11 10 8 7 8 8 8 7 7 7 7 6
13 13 14 11 11 14 16 15 12 11 12 12 15 16 12 9 9 11 14 16 15 13 14 16 15 15 14 14 16 18 18 19 20 21 21 22 26 31 33 33 33 32 31 32 32 31 31 31 31 32 31 29 29 29 30 30 28 26 25 25 23 21 20 18 17 17 18 17 17 17 17 17 17 18 18 19 18 19 19 18 17 16 15 13 12 11 10 9 9 9 9 8 9 8 7 7 7
14 15 12 8 7 8 10 11 10 11 13 15 18 19 15 11 10 11 13 14 15 13 13 14 15 16 15 15 16 16 16 16 17 19 20 21 25 29 31 32 33 32 31 31 31 30 31 31 31 32 32 29 29 30 30 31 30 28 26 26 25 23 21 20 18 18 19 19 19 18 18 17 17 17 17 18 19 19 19 18 18 16 15 14 14 12 11 11 10 11 10 10 10 9 8 8 8
15 13 10 8 7 8 8 8 9 11 12 13 18 21 19 14 10 10 12 15 18 17 15 17 18 18 17 16 17 16 16 16 17 17 18 20 22 25 28 30 32 32 31 32 32 31 32 32 33 33 32 30 29 30 31 31 30 29 27 26 26 25 23 22 21 20 19 20 19 19 18 18 17 17 17 17 19 19 19 19 18 17 16 16 15 14 13 12 11 11 11 11 11 11 10 10 10
14 12 11 10 8 8 9 9 10 12 11 11 16 18 17 15 11 12 14 15 17 17 15 17 20 21 20 19 19 15 15 17 17 16 17 18 19 21 24 28 31 32 33 34 33 33 33 33 34 34 34 33 31 31 31 31 31 30 28 27 26 25 25 24 23 22 21 20 20 19 19 19 18 18 18 18 19 19 20 19 19 18 17 17 16 15 14 13 11 11 11 12 12 12 12 11 11
14 12 11 10 9 9 10 10 10 11 11 12 16 16 14 14 11 15 19 17 15 15 15 17 20 22 22 20 18 14 15 16 16 16 17 18 19 20 22 27 30 32 34 35 35 34 33 33 35 36 35 34 33 32 32 32 31 31 30 28 26 25 26 25 24 23 22 21 20 20 20 20 20 19 19 19 19 19 20 20 19 19 18 18 17 16 15 14 13 12 12 13 13 13 13 12 12
14 13 11 11 9 9 9 9 9 9 9 13 16 13 11 11 7 11 18 19 16 14 15 17 17 17 19 19 15 13 15 16 15 16 18 19 20 21 22 27 30 32 34 35 35 35 33 33 35 37 36 36 34 33 33 33 33 32 31 29 26 25 25 26 25 24 24 23 22 21 21 21 20 20 20 20 19 19 19 20 20 19 19 19 19 18 16 15 15 13 13 14 14 14 14 14 13
12 12 12 12 11 9 7 7 9 9 8 10 12 10 9 9 7 7 10 15 19 16 14 15 14 15 16 18 16 15 15 15 15 16 18 20 20 21 23 27 30 31 33 34 34 35 35 34 35 37 37 37 37 35 34 34 34 33 31 29 28 26 25 25 25 25 25 25 23 22 22 22 21 20 19 20 20 20 20 20 21 20 20 20 20 19 18 17 16 15 14 15 15 15 15 15 14
10 13 13 12 13 11 7 7 8 8 8 7 8 10 9 7 8 9 8 11 17 19 18 15 15 16 15 16 18 16 16 15 17 17 18 19 20 21 25 28 30 31 33 35 36 37 37 35 35 37 36 36 37 36 35 35 34 33 32 31 29 28 27 27 26 26 26 25 24 24 22 22 22 21 20 19 20 21 22 22 22 21 21 21 21 21 20 18 18 17 16 16 16 16 16 16 16
9 12 14 11 12 11 8 7 7 7 8 7 8 12 11 8 7 9 13 14 15 19 21 19 17 17 16 16 18 18 18 17 18 19 18 19 20 21 25 29 32 34 35 36 37 37 37 36 36 37 37 37 37 37 36 35 34 33 32 32 31 30 29 28 27 26 25 25 25 25 24 23 23 22 21 20 20 21 22 23 23 22 22 22 22 22 21 20 19 18 17 17 17 17 17 17 17
14 10 13 11 10 11 9 7 8 9 8 7 10 11 10 9 8 8 13 16 15 15 18 19 20 19 17 17 19 21 21 17 17 18 17 18 20 21 25 29 33 35 36 36 36 35 35 34 35 37 38 39 38 37 35 34 34 33 32 33 34 32 30 29 27 26 25 26 26 26 25 25 23 22 22 22 21 21 22 23 23 23 22 23 23 23 22 21 21 19 18 17 18 18 18 18 18
17 12 13 12 9 9 9 8 7 8 7 7 9 10 9 9 10 11 11 13 15 16 15 15 17 18 16 15 16 19 19 16 16 16 16 19 21 23 27 30 32 33 33 33 34 35 35 34 34 36 37 37 37 36 35 35 35 34 33 33 34 33 32 30 28 27 26 27 28 27 26 26 24 23 23 23 23 22 22 23 23 23 23 23 23 23 23 23 22 20 19 18 19 20 19 19 19
16 13 13 12 10 8 9 10 8 8 8 6 6 7 6 5 7 10 9 9 11 14 15 14 14 15 16 15 15 16 16 15 15 15 17 19 20 22 27 29 29 30 31 32 34 35 35 34 34 35 36 37 37 37 36 35 35 35 34 34 34 34 33 31 29 29 28 28 27 28 27 26 25 24 24 24 24 24 24 24 24 23 23 24 24 24 23 23 23 22 21 19 20 21 22 21 20
16 13 13 13 12 10 10 10 10 9 8 6 6 6 2 4 3 4 7 9 9 10 12 13 13 15 15 15 16 15 15 15 15 15 16 18 18 19 22 25 27 28 30 32 33 34 35 35 35 35 35 36 38 38 37 36 35 35 35 35 34 33 33 32 31 30 30 29 27 28 27 26 25 25 25 25 25 25 25 24 24 23 24 24 24 25 24 24 24 23 22 21 21 23 23 23 22
Wind_Direction
157 162 169 173 164 155 165 194 241 202 215 267 246 244 199 164 148 118 107 106 113 118 102 95 83 68 89 108 102 86 81 66 66 104 93 122 136 144 145 137 140 139 137 139 142 142 138 139 139 137 136 134 131 129 127 125 125 123 122 121 123 126 122 118 116 114 112 109 106 104 101 100 97 96 94 93 93 93 92 90 89 89 88 88 88 88 88 89 89 90 90 91 94 97 98 95 96
171 174 176 172 161 163 169 189 249 229 204 251 240 240 46 29 120 115 128 161 135 111 98 95 97 87 96 112 111 85 70 67 83 88 97 125 130 141 147 142 141 139 139 141 144 142 141 143 141 139 137 134 132 130 127 126 125 124 124 123 126 128 123 119 117 115 113 110 107 105 102 100 97 96 94 93 92 92 90 88 86 85 86 87 86 86 87 86 87 87 87 87 86 92 96 94 95
180 176 177 168 161 185 249 181 253 277 232 145 143 237 155 85 86 98 122 144 116 105 96 101 102 79 85 90 88 83 83 86 97 100 116 132 133 147 148 145 143 141 141 142 145 143 142 145 143 141 139 135 132 131 128 126 126 126 127 127 129 129 125 121 119 117 113 111 108 106 104 101 99 96 94 92 90 89 87 86 85 84 85 85 85 85 84 84 84 83 86 88 85 87 89 91 95
186 178 177 175 175 213 238 230 247 306 284 167 122 175 160 113 85 87 101 110 108 110 104 104 88 53 71 84 88 89 94 99 107 111 129 140 142 147 146 146 144 141 141 142 144 141 144 150 146 141 139 136 133 131 129 128 128 129 131 131 130 130 126 123 120 118 115 112 109 107 105 101 99 96 94 91 89 87 85 85 84 84 84 83 84 82 82 81 83 85 88 90 88 87 86 88 91
202 192 183 185 191 212 214 264 240 213 238 263 85 125 129 107 98 97 102 105 114 118 103 95 91 84 73 72 88 97 105 108 114 119 127 136 140 143 144 144 143 141 142 143 142 140 146 153 150 144 143 138 134 133 132 131 130 130 133 133 130 130 127 124 122 119 117 114 110 108 106 103 99 96 94 91 89 86 85 85 84 84 83 83 81 80 80 79 82 85 87 88 88 88 87 89 89
215 207 203 205 231 290 233 246 236 172 180 204 69 91 92 92 97 103 110 108 110 109 99 89 99 102 79 68 75 89 118 121 121 126 127 133 139 141 142 142 141 140 141 143 143 141 147 154 151 148 145 138 136 136 134 133 131 131 134 134 130 131 129 125 124 121 119 116 113 110 107 104 100 97 94 92 89 86 85 84 85 85 83 81 79 78 77 77 78 77 80 82 83 84 86 87 89
213 209 215 220 255 273 241 256 247 102 109 94 79 89 86 94 103 112 114 112 109 101 100 98 104 106 92 88 79 86 119 127 124 126 130 136 139 141 143 143 140 137 139 142 141 141 147 152 150 148 143 140 141 138 136 135 134 136 137 133 132 133 130 127 125 123 122 119 116 112 108 105 102 98 95 93 91 87 85 84 84 84 81 78 77 77 76 75 73 73 75 78 80 79 80 82 86
217 221 232 247 257 223 248 267 103 72 82 78 75 87 93 105 111 112 108 116 120 114 119 107 104 105 94 93 95 103 113 119 120 125 133 137 139 142 145 144 140 139 139 138 138 144 150 152 151 150 145 144 144 141 138 138 139 140 138 134 136 136 132 130 128 128 125 122 119 114 111 107 103 100 97 95 92 89 86 84 84 83 81 79 78 78 76 75 73 73 73 74 78 77 77 75 76
221 221 261 273 265 255 250 247 97 82 86 83 86 97 103 112 114 113 115 132 128 127 127 107 95 102 97 95 104 111 106 113 123 129 136 138 142 144 142 143 142 141 140 137 141 147 151 152 152 152 149 148 146 143 141 141 143 142 141 138 139 139 136 134 132 131 128 126 122 118 114 109 106 101 98 95 92 90 87 84 83 82 82 81 80 79 76 75 73 73 73 73 76 76 75 73 73
226 224 254 276 283 277 240 151 96 90 91 92 98 105 109 111 115 115 115 125 128 128 120 107 101 106 105 105 107 113 119 126 130 134 139 141 145 144 139 144 144 141 139 138 143 146 150 153 153 153 152 150 148 145 144 145 146 145 145 143 143 142 139 137 137 135 131 129 125 122 118 112 108 102 100 96 92 90 88 85 82 81 81 82 79 77 75 73 73 72 73 73 76 77 75 76 76
236 237 244 268 285 274 251 93 102 96 94 97 94 95 100 100 102 101 100 111 121 126 121 115 114 110 104 103 101 111 125 133 135 137 141 143 146 144 142 146 145 140 138 137 141 144 149 154 154 154 153 152 150 148 147 147 149 148 148 148 147 144 142 141 142 138 136 134 129 127 121 117 110 104 101 97 94 91 89 86 83 80 78 79 77 75 74 72 71 70 71 75 78 79 78 79 78
244 248 246 257 269 266 47 83 93 97 104 101 95 94 94 95 96 95 101 113 116 125 129 134 130 121 110 105 106 119 130 136 138 140 143 146 147 146 144 144 142 138 137 136 139 142 147 153 155 156 154 152 151 150 150 149 151 152 151 152 149 146 147 146 146 143 141 138 134 131 126 122 115 109 104 101 100 95 92 87 81 79 77 76 74 73 72 70 70 69 70 73 77 80 81 78 75
239 248 273 275 266 261 114 95 96 112 110 93 95 98 100 103 100 96 103 111 116 127 125 134 130 117 111 112 122 132 137 140 142 144 146 150 148 146 145 143 142 139 137 136 137 141 145 149 153 156 154 152 151 152 152 151 153 155 155 153 151 150 152 151 150 148 147 144 140 135 130 125 120 116 110 107 104 99 96 91 85 77 74 74 72 71 69 68 68 70 71 71 74 78 79 76 73
247 252 272 270 257 251 111 106 120 118 98 91 105 107 114 101 93 102 111 110 106 112 108 118 120 106 110 120 136 147 145 146 148 148 150 152 149 148 148 145 143 140 139 140 139 142 145 147 150 153 154 153 152 152 153 155 156 157 158 155 155 156 156 156 154 153 152 149 145 140 135 128 125 121 117 114 108 105 94 86 89 82 74 74 75 71 70 70 68 70 71 73 72 73 78 77 76
255 280 283 287 284 283 54 106 82 83 99 100 107 114 115 92 98 108 101 102 90 94 109 128 126 119 141 147 156 156 151 152 152 151 152 153 151 150 149 147 144 144 144 143 144 145 147 148 150 153 155 155 154 154 155 159 160 161 161 158 159 161 162 161 159 159 158 155 151 145 142 135 130 127 128 123 119 119 98 81 86 87 78 72 76 75 74 75 70 69 68 73 72 69 75 75 73
254 294 295 278 304 310 272 92 64 52 107 100 105 123 113 95 105 97 77 94 101 111 131 133 124 133 160 156 152 152 151 152 152 154 153 152 154 152 152 149 143 144 147 147 149 149 150 150 152 156 156 158 157 154 155 159 163 163 162 162 165 166 167 167 165 166 164 163 158 153 151 142 138 136 132 130 130 131 121 126 120 89 86 74 73 76 77 77 70 70 71 79 83 71 68 67 61
254 275 277 275 336 311 289 81 84 96 100 108 127 129 113 107 96 85 94 114 117 133 132 121 109 102 143 141 145 149 151 152 154 157 154 155 158 156 156 152 142 144 149 151 153 153 154 154 156 159 159 160 158 155 156 159 164 164 164 167 169 171 170 173 172 172 171 169 167 162 158 153 156 152 136 144 146 135 145 160 130 89 97 77 65 70 65 68 66 59 64 75 86 72 64 66 47
242 241 248 272 34 290 285 59 108 137 105 119 131 129 118 119 110 105 143 128 122 139 124 119 104 77 102 126 140 146 151 155 158 160 156 160 162 160 161 157 152 152 155 155 156 157 157 157 159 161 161 162 160 159 158 160 165 165 168 171 172 175 175 178 178 178 178 177 178 171 172 172 166 161 148 158 163 155 169 168 120 81 90 76 65 65 52 58 66 59 63 72 83 75 54 114 38
227 246 248 226 138 241 258 31 64 78 96 114 123 144 108 110 121 138 169 127 129 146 132 136 121 103 111 128 141 145 154 159 160 163 160 163 165 164 162 162 161 158 161 160 159 161 159 160 163 164 164 165 164 162 162 164 167 168 171 174 175 179 180 182 184 185 185 185 188 184 190 183 164 163 166 171 171 171 175 40 49 49 61 75 75 68 57 65 71 68 72 78 92 93 37 93 59
216 241 254 120 227 235 225 73 61 51 54 88 110 130 114 129 145 162 167 130 142 153 140 150 137 127 130 137 144 147 157 162 163 165 163 168 168 167 166 165 166 163 163 162 161 164 162 163 165 167 166 167 168 166 167 167 169 173 175 178 179 182 184 187 190 192 190 188 192 194 195 180 169 174 181 185 175 183 199 59 71 84 74 78 85 85 87 88 84 88 93 92 109 98 45 37 67
217 234 232 146 239 243 134 90 82 64 12 53 88 127 136 153 152 166 171 145 158 159 150 155 145 141 141 146 150 153 160 164 167 167 167 173 170 169 170 166 167 166 164 161 164 166 167 168 166 169 170 170 172 169 171 171 172 176 179 181 182 184 187 190 194 195 193 192 196 199 191 179 182 182 185 194 181 191 206 193 144 140 109 82 98 283 94 135 280 111 123 102 116 106 52 31 357
236 246 241 191 243 247 117 158 77 70 326 55 104 129 127 142 155 175 190 166 123 138 148 150 148 147 149 154 156 160 163 165 170 170 171 175 173 172 171 169 168 168 167 165 168 168 169 171 168 171 172 171 174 173 173 173 175 179 181 183 184 187 189 192 194 194 196 195 198 201 189 181 189 187 182 192 190 189 200 203 158 144 177 157 163 274 52 246 320 79 86 3 35 44 40 19 6
239 244 236 226 249 260 130 161 102 194 292 353 348 58 113 160 167 169 189 176 91 100 137 141 147 150 155 158 160 165 165 167 171 173 176 175 174 176 172 172 172 170 172 169 170 170 169 171 170 172 173 173 175 175 174 173 177 182 182 184 187 189 189 192 195 194 195 194 200 203 195 187 190 192 185 188 198 194 194 194 155 150 198 213 164 102 4 22 24 47 56 20 9 11 13 356 343
236 248 240 232 245 252 249 237 209 239 267 271 295 14 198 199 165 156 179 187 133 113 130 136 142 150 157 160 164 169 166 169 171 173 180 179 177 178 173 174 175 173 174 172 171 172 173 173 173 172 172 177 177 176 177 177 181 184 183 185 188 190 190 193 195 193 190 192 199 201 202 199 193 194 186 187 199 199 194 187 185 186 187 224 135 70 2 27 33 14 33 46 23 357 335 351 347
228 245 254 245 242 241 239 237 233 240 250 255 251 244 233 212 206 187 170 177 161 138 139 138 141 151 160 164 168 169 168 173 174 175 180 181 180 178 175 176 176 175 177 176 174 175 176 175 175 174 175 180 180 179 180 182 184 185 184 187 188 189 192 194 192 192 189 191 196 197 203 205 200 195 186 189 196 193 192 193 202 199 182 227 310 30 7 11 11 10 11 358 15 355 339 359 348
223 235 248 248 243 236 229 230 231 236 240 246 240 237 236 208 213 219 177 172 166 152 152 146 147 158 162 168 172 171 171 176 178 178 178 180 181 180 178 178 177 178 179 179 177 177 177 175 177 177 178 181 182 183 184 185 186 186 185 188 189 188 194 195 189 193 192 192 194 192 198 206 209 201 188 190 194 192 191 199 209 206 208 232 296 1 4 356 350 357 352 346 354 345 349 358 348
219 230 243 247 251 246 235 232 231 234 236 240 243 240 240 215 200 207 180 174 166 156 158 154 157 164 164 169 172 172 175 177 179 179 177 180 182 181 180 181 179 178 179 181 179 179 178 178 179 178 179 180 183 186 186 187 187 187 186 187 190 189 194 194 190 198 195 194 192 187 193 201 210 208 190 188 194 199 197 201 207 210 221 236 289 320 310 306 330 342 342 335 330 338 345 352 356
227 228 240 243 247 250 243 238 234 235 236 235 239 242 242 224 211 209 176 169 168 164 163 160 164 166 165 169 169 172 178 178 179 180 180 182 183 182 180 181 180 178 180 182 179 179 180 180 181 180 180 180 184 187 186 187 188 188 187 187 191 191 193 194 195 200 196 194 188 183 190 195 205 213 189 188 201 205 204 206 203 211 224 228 264 291 295 279 295 309 305 307 312 335 335 357 6
240 240 243 239 236 239 234 230 229 226 230 228 231 240 235 222 216 202 168 162 166 171 168 166 171 170 168 169 167 172 178 179 181 184 184 182 182 183 183 183 181 180 181 180 179 181 183 182 182 181 181 181 185 188 186 187 188 188 189 190 191 191 193 197 199 198 196 193 185 185 190 191 200 209 200 198 209 210 205 208 202 214 226 229 262 270 267 251 269 295 277 293 314 330 335 13 358
235 239 244 245 237 233 225 222 221 219 222 219 222 239 230 216 203 191 171 162 170 178 168 168 181 176 173 172 168 172 177 180 182 185 185 182 183 185 185 185 182 181 180 180 181 181 182 182 182 182 182 182 185 189 187 187 190 189 191 192 191 192 194 198 200 198 196 194 190 188 189 192 197 202 204 204 211 215 210 207 208 221 220 215 243 240 258 258 275 296 294 310 320 329 341 25 10
226 233 235 241 243 235 217 212 212 213 215 210 216 237 237 211 179 178 176 165 177 187 166 168 193 182 173 176 173 174 176 181 184 185 186 183 183 184 185 184 182 182 180 181 183 182 181 181 182 183 183 183 185 189 189 189 192 190 191 192 191 193 196 198 200 198 195 195 193 190 190 193 196 199 204 205 211 218 216 210 212 224 212 211 235 219 265 288 292 290 308 320 321 337 0 109 106
218 227 228 225 235 243 219 204 205 212 206 201 213 230 235 218 166 163 170 173 186 192 171 173 195 183 167 178 182 178 176 180 184 184 185 184 183 183 184 184 182 182 181 180 182 182 182 181 182 183 182 184 186 188 188 190 193 193 193 193 192 195 198 200 201 200 196 196 195 192 192 193 196 200 202 205 212 218 222 217 211 216 212 225 237 221 259 276 279 284 299 322 338 351 80 133 123
212 221 231 222 220 234 223 195 198 214 209 197 209 230 235 197 161 162 164 175 192 195 183 179 190 182 165 177 191 187 179 178 184 186 184 184 184 183 183 183 183 182 181 180 180 183 184 182 183 184 181 184 187 187 188 189 191 194 194 194 195 197 201 201 202 203 199 196 196 194 192 193 196 198 201 206 213 219 223 222 215 205 208 227 229 237 256 254 257 264 273 310 349 342 93 107 119
209 212 227 232 222 223 220 195 190 207 215 205 203 218 235 186 161 172 169 177 193 195 195 185 187 181 162 174 196 193 185 180 183 186 184 183 183 183 183 182 182 183 181 180 181 183 184 183 184 186 181 182 186 188 189 190 190 192 194 197 197 199 204 203 202 204 203 198 196 196 192 191 196 198 201 206 211 221 224 226 222 201 205 225 225 239 247 239 253 262 270 290 350 350 6 48 18
210 208 216 231 229 222 215 206 188 194 210 218 213 212 223 210 181 175 177 191 198 194 199 189 187 182 165 177 198 191 190 190 185 184 184 182 181 181 182 181 181 182 181 181 181 182 184 183 184 187 182 180 184 186 189 190 190 193 195 197 198 201 205 205 205 204 205 203 196 195 193 192 195 198 201 205 210 219 225 229 225 211 213 222 230 241 238 226 248 260 270 282 8 73 74 60 55
217 213 216 221 228 228 217 215 201 193 206 217 221 224 221 217 208 192 183 194 202 201 201 189 186 184 175 184 193 189 195 197 188 184 183 181 181 180 180 180 181 182 181 180 181 181 184 183 183 187 184 181 181 182 188 189 190 194 196 198 199 202 205 205 208 207 205 205 198 194 194 195 195 197 201 204 211 215 222 229 221 216 221 221 233 246 246 233 233 247 259 247 145 133 110 100 95
231 222 223 220 225 230 216 218 211 194 211 218 217 230 228 218 220 208 184 185 206 209 200 193 190 181 178 189 189 191 200 199 188 184 182 181 181 179 178 178 179 181 181 179 180 181 183 183 182 185 184 182 181 182 187 189 190 193 195 200 200 200 203 204 207 208 207 204 199 195 196 197 196 196 199 202 209 213 219 226 219 214 221 220 223 232 239 234 223 236 244 213 167 136 135 151 114
236 232 230 225 225 227 214 213 211 191 203 227 221 230 233 225 228 218 182 180 204 211 202 199 197 183 178 189 188 190 200 201 192 182 180 183 182 179 178 178 179 180 181 180 181 181 184 184 182 183 183 183 185 184 186 190 192 194 195 199 201 199 201 204 206 207 206 203 200 199 198 198 198 197 198 201 206 212 214 217 215 211 218 221 216 219 227 223 222 232 224 200 156 137 180 102 108
232 234 235 234 224 226 224 215 216 206 194 229 233 234 237 232 236 235 213 202 198 203 210 204 197 188 183 185 180 189 203 202 193 182 179 182 182 180 178 179 181 180 180 180 181 181 183 184 183 182 183 183 186 186 186 190 193 195 196 198 200 200 199 203 208 206 205 204 201 201 200 199 199 197 198 201 204 209 209 207 209 211 215 217 212 217 222 217 219 226 216 193 154 148 173 95 114
228 228 226 233 223 220 227 216 219 217 199 228 240 238 239 235 234 231 231 228 201 189 208 211 196 184 183 187 180 188 203 202 191 182 178 180 182 182 180 180 181 180 179 180 180 181 182 185 183 182 183 184 186 187 187 190 192 194 197 198 201 205 202 201 206 207 205 205 203 200 202 201 199 199 200 201 204 207 206 204 209 212 210 208 207 210 214 216 218 216 206 188 178 182 170 141 165
225 228 225 228 226 225 230 222 223 219 206 222 241 245 240 235 237 229 227 235 218 191 200 213 206 183 175 184 188 191 203 206 195 184 179 180 182 182 182 180 180 181 181 181 181 182 183 185 183 182 184 185 186 187 187 188 189 192 195 198 202 208 208 202 203 207 204 205 205 201 203 203 201 201 202 203 205 207 205 204 206 209 207 202 205 209 208 214 216 209 202 185 189 220 199 146 157
221 225 228 233 234 233 236 236 234 225 214 216 226 241 243 232 237 238 230 230 222 200 196 211 215 196 178 180 189 191 196 205 203 191 182 180 181 181 181 182 183 183 183 183 182 183 184 183 182 182 184 186 187 187 187 187 188 191 193 196 198 203 206 203 202 205 203 203 207 205 205 206 204 203 204 204 206 207 207 204 203 207 206 199 202 211 210 213 216 206 201 188 183 213 260 143 160
224 216 220 230 240 242 239 239 236 230 230 222 215 226 243 235 231 232 228 230 228 204 192 207 212 207 195 185 187 186 185 194 203 199 187 181 180 180 181 184 186 185 184 183 183 183 184 182 182 183 184 186 188 188 187 187 188 191 194 197 200 200 202 203 203 205 205 204 207 207 206 206 206 205 205 205 206 207 208 207 206 208 209 204 201 205 209 215 215 201 195 189 177 180 191 216 192
229 213 211 218 230 238 238 240 240 234 243 243 230 228 239 239 233 230 221 225 230 205 184 203 207 207 208 193 186 186 184 188 197 200 191 183 182 182 183 185 187 187 183 182 183 183 183 182 182 183 184 186 188 188 188 188 189 191 195 199 203 204 204 204 202 204 207 206 207 208 207 204 205 207 206 206 206 206 208 208 208 209 212 212 208 207 209 210 206 193 187 181 172 169 168 198 218
229 221 219 215 220 228 232 237 242 238 240 245 238 235 242 241 237 243 234 227 224 198 183 203 206 204 210 203 192 187 187 188 191 197 193 185 185 185 184 184 186 186 184 183 184 183 183 183 183 183 185 186 187 189 189 190 191 193 197 201 204 206 206 205 204 204 206 207 207 208 207 205 204 206 207 206 205 206 207 208 208 209 211 213 213 214 210 203 198 192 188 178 173 173 171 193 217
224 223 225 219 217 225 226 231 235 236 239 238 233 232 241 245 229 230 238 235 222 199 197 207 204 200 205 215 206 188 187 190 189 193 192 189 189 187 185 183 184 186 185 184 184 182 182 182 183 184 186 187 188 189 190 191 193 195 199 203 204 205 203 204 205 205 204 206 207 206 206 206 205 206 207 207 206 206 206 208 208 209 211 212 214 216 208 199 198 194 193 185 179 179 176 192 209
213 219 220 209 215 225 226 229 230 235 239 235 232 233 239 246 233 221 226 228 220 210 206 199 199 200 197 213 218 193 186 191 189 191 191 191 191 188 186 184 184 186 184 183 183 182 181 181 183 185 186 187 188 189 190 192 194 196 200 203 205 204 201 201 204 204 203 204 205 205 206 207 207 208 208 208 208 208 207 208 210 210 211 212 212 213 210 203 201 196 194 189 185 185 183 192 206
207 213 207 196 206 213 220 219 219 233 237 229 228 232 239 243 234 228 230 227 221 216 207 192 194 200 194 206 217 197 186 190 189 190 189 189 190 189 189 187 185 185 183 183 184 183 181 181 182 183 186 187 187 189 191 192 195 197 201 204 205 203 200 200 203 204 203 202 204 205 205 207 209 210 209 208 209 210 208 208 210 210 209 209 209 210 210 207 205 198 191 189 188 189 188 193 204
204 207 201 198 199 196 209 209 209 229 234 228 225 222 232 244 237 233 239 235 226 219 210 198 199 198 189 199 212 198 186 188 189 190 188 187 189 190 190 188 185 185 184 184 184 183 182 181 181 182 185 186 186 188 190 192 196 197 200 204 204 202 201 202 204 205 204 203 204 204 205 206 208 210 210 209 210 209 208 207 209 209 207 207 206 207 208 206 205 199 190 190 190 190 190 195 205
199 203 198 197 199 194 203 209 212 228 228 224 225 220 228 242 236 227 232 237 233 220 207 204 209 203 185 189 207 202 191 190 187 189 189 188 189 190 190 188 187 187 186 184 185 184 183 182 182 182 184 185 186 187 189 192 196 198 200 203 203 201 201 203 205 206 206 205 205 206 206 208 209 211 212 212 211 209 208 208 208 208 207 205 204 204 204 202 201 198 193 191 192 192 192 196 207
199 202 201 204 212 208 206 210 213 224 226 216 215 220 229 235 235 225 224 226 228 227 213 203 209 206 182 176 196 212 204 193 187 190 191 190 189 188 189 189 188 189 187 185 185 185 184 183 183 182 183 184 185 187 189 193 196 198 200 201 201 202 203 204 205 208 208 208 208 208 209 211 212 213 214 213 212 210 209 208 207 208 208 205 203 201 200 199 197 196 195 193 194 194 194 198 207
195 199 206 209 215 221 223 224 222 226 234 217 205 215 229 233 240 232 224 221 215 217 219 205 200 206 188 170 182 211 214 195 187 194 193 190 189 186 189 190 189 190 189 187 186 185 185 184 183 183 183 184 185 187 189 192 195 197 198 199 201 203 203 204 206 208 209 210 209 210 211 213 214 215 215 213 211 209 209 207 206 207 206 204 203 200 198 197 196 196 196 195 195 194 195 199 206
185 198 210 209 212 228 238 234 232 234 239 228 206 210 216 226 228 208 207 225 212 205 211 207 195 200 193 173 176 200 215 202 189 193 193 188 187 187 189 190 189 189 190 190 189 187 186 185 183 183 184 184 185 187 188 191 193 195 197 199 200 202 204 205 206 208 209 210 210 211 213 213 215 215 215 213 211 209 208 207 206 205 204 204 204 202 199 198 197 198 198 197 196 194 195 198 204
194 196 204 205 213 228 241 237 228 225 231 232 219 215 208 211 222 204 199 213 214 204 206 205 197 198 198 186 179 190 207 206 192 190 190 187 187 188 190 192 191 190 191 192 191 188 187 186 184 183 183 185 186 187 189 190 191 193 196 198 200 202 204 206 207 208 209 210 210 211 212 213 215 215 215 214 213 210 208 208 206 205 203 202 202 202 202 200 197 198 199 200 200 196 196 200 204
218 205 195 199 210 211 215 230 228 221 223 226 226 226 219 211 214 213 203 203 208 203 200 204 202 200 204 200 187 187 199 203 194 190 188 187 189 189 190 193 193 192 191 191 190 189 189 188 187 185 185 186 186 188 189 190 191 193 196 198 200 201 204 206 207 208 209 210 211 211 211 213 214 214 213 214 213 211 209 207 206 206 205 202 201 201 200 199 198 198 199 199 201 199 197 200 203
219 217 200 203 217 210 204 216 226 227 227 225 222 222 225 224 216 215 204 192 200 201 195 204 205 194 195 199 189 186 195 200 196 191 187 188 192 191 192 194 194 193 191 190 189 190 191 190 189 189 188 187 187 188 189 190 192 195 196 198 200 201 204 205 206 206 208 210 211 211 212 213 213 213 213 213 212 211 210 209 209 208 208 205 202 200 199 199 200 200 200 200 201 201 199 202 205
205 213 204 198 207 212 210 213 215 226 233 230 230 226 216 208 204 208 198 179 191 202 197 201 210 201 191 192 190 186 191 199 199 194 190 191 193 193 192 193 193 192 191 191 191 191 192 192 191 191 190 188 188 189 190 191 193 195 195 197 199 200 202 204 205 205 207 210 210 210 212 211 211 212 212 211 211 211 210 211 211 210 209 207 203 202 200 199 201 201 201 202 200 200 202 205 208
196 206 207 198 198 204 210 210 205 218 235 234 243 250 201 97 110 184 197 188 182 194 201 195 202 211 204 193 191 186 189 198 200 197 195 193 193 192 190 189 191 192 191 193 193 192 192 193 192 192 191 191 191 191 191 192 193 195 196 197 198 199 201 202 204 205 207 208 208 209 210 209 211 211 211 211 211 210 210 210 211 211 211 208 203 202 201 199 202 202 200 202 202 200 203 205 208
Height
775 778 778 780 781 782 785 785 798 795 794 804 790 783 770 755 758 762 766 763 761 748 734 737 737 739 748 761 762 763 768 774 777 779 790 787 782 788 789 791 794 795 799 801 804 806 807 809 811 812 814 815 816 818 819 819 820 821 822 823 824 826 827 828 829 830 831 832 832 832 833 833 833 834 834 835 835 835 836 836 836 836 837 837 838 838 838 838 839 839 838 839 838 838 838 838 839
775 777 777 780 779 784 786 783 800 794 792 806 789 779 768 753 757 765 769 765 757 741 732 736 737 738 742 748 749 758 767 766 765 769 776 779 785 789 789 792 794 796 798 801 804 806 808 810 812 813 815 816 817 819 819 820 821 822 823 824 826 828 828 829 830 831 832 833 833 834 834 834 835 835 835 836 836 836 837 837 837 837 838 838 838 839 839 839 839 839 839 839 839 839 839 839 839
774 776 777 781 780 781 782 786 798 791 792 802 792 778 766 762 754 753 757 752 742 734 737 737 740 743 744 752 753 764 773 766 763 768 776 782 785 788 790 792 793 797 798 801 804 806 809 811 812 814 815 817 818 819 820 821 822 823 825 826 827 829 830 830 831 833 833 834 834 835 835 836 836 836 837 837 838 838 838 838 838 839 839 839 839 840 840 840 840 840 840 840 840 840 840 840 840
772 774 776 778 782 784 786 794 792 791 795 785 783 778 764 762 750 744 744 740 736 735 740 742 751 748 748 763 760 765 773 768 767 770 777 782 783 787 789 792 794 797 799 802 804 807 809 811 813 814 816 818 819 820 821 822 823 824 826 827 829 830 831 831 832 834 834 835 835 836 836 837 837 838 838 838 839 839 839 839 839 840 840 840 840 840 841 841 841 841 841 841 841 841 841 841 841
771 773 774 776 785 786 788 794 789 795 795 766 762 762 751 749 744 745 741 737 736 737 741 745 759 752 749 759 757 768 774 769 769 770 775 780 783 786 789 792 794 796 799 801 804 807 809 811 813 815 817 818 819 821 822 823 824 826 827 829 830 831 832 833 834 835 836 836 836 837 838 838 839 839 840 840 840 840 840 840 841 841 841 842 841 841 842 842 842 842 842 842 842 842 842 842 842
769 769 770 772 776 776 785 793 785 783 774 753 751 746 740 739 740 744 741 739 736 737 741 747 756 755 759 758 755 764 766 767 770 770 774 779 784 786 789 792 794 797 799 802 805 807 809 812 814 816 817 819 820 822 823 824 825 827 828 830 831 832 833 834 835 836 837 837 838 838 839 839 840 840 841 841 842 841 842 842 842 842 843 843 842 843 843 843 843 843 843 843 843 843 843 843 843
766 770 771 774 774 773 787 787 769 760 748 739 742 739 738 739 738 741 743 745 744 741 742 747 749 756 768 761 762 762 760 765 765 770 775 779 784 786 790 792 795 797 799 802 805 807 810 812 814 817 818 820 821 823 824 825 827 828 829 830 832 833 834 835 836 837 838 839 839 839 840 841 841 841 842 842 843 843 843 843 843 843 844 843 843 844 844 844 844 844 844 843 844 843 843 843 843
763 769 768 777 782 777 785 777 755 746 738 729 730 734 735 736 735 741 747 748 750 748 745 747 745 759 770 761 770 766 759 765 766 773 777 780 784 787 790 792 795 797 800 803 805 808 810 813 815 817 819 821 822 824 825 826 828 829 831 831 833 834 835 836 837 838 839 840 840 841 841 841 842 842 843 843 843 844 844 844 844 844 844 844 844 845 845 845 845 844 844 844 844 844 844 844 844
758 764 768 779 782 778 778 766 748 739 734 730 731 733 731 731 732 738 747 747 746 746 747 749 747 763 772 766 773 766 763 768 770 776 778 782 785 786 790 791 795 797 801 803 806 808 811 814 816 818 820 822 823 824 826 827 829 830 832 833 834 835 836 837 838 839 840 841 841 842 842 842 843 843 844 844 844 844 845 845 845 845 845 845 845 845 845 845 845 845 845 845 845 845 845 844 844
758 761 769 780 780 780 770 753 745 738 733 730 730 730 729 728 730 734 741 744 742 744 746 745 750 763 770 772 773 766 769 771 772 778 780 783 785 787 790 792 795 797 801 803 806 809 812 815 816 819 821 822 824 825 827 828 830 831 832 834 835 836 837 838 839 840 841 842 842 842 843 843 844 844 845 844 845 845 845 846 846 846 846 846 846 846 846 846 846 846 846 846 846 846 845 845 845
765 761 765 783 788 782 761 746 744 738 732 729 730 728 727 727 730 734 738 742 740 743 745 746 757 762 766 773 771 767 769 772 774 778 780 784 786 787 791 793 795 797 800 803 807 810 812 815 817 820 821 823 825 826 828 829 830 832 833 835 836 837 838 839 840 841 841 842 843 843 844 844 844 844 845 845 846 846 846 846 846 847 847 847 847 847 847 847 847 847 847 847 847 846 846 846 845
770 770 769 786 788 770 748 743 744 738 734 734 736 729 724 728 734 739 741 744 742 745 746 749 756 756 770 778 771 769 770 774 776 778 782 784 786 788 790 793 795 797 801 804 807 810 813 816 818 820 822 824 825 827 829 829 831 832 835 836 837 838 839 840 841 842 842 843 843 844 844 844 845 845 845 846 846 846 847 847 847 848 847 847 847 847 847 847 847 847 848 847 847 847 847 846 846
765 770 775 784 775 755 739 742 743 740 741 738 737 729 724 731 737 739 741 744 744 750 748 744 745 751 771 777 770 771 772 776 778 780 783 785 787 789 791 793 796 798 801 805 807 810 813 816 818 821 822 824 826 828 829 830 832 833 835 836 837 838 839 841 841 842 843 844 844 844 845 845 845 845 846 846 846 847 847 847 848 848 848 848 848 848 848 847 848 848 848 848 847 847 847 847 846
755 757 768 779 767 746 736 743 743 743 747 738 732 727 726 731 733 733 738 748 747 746 743 734 739 756 771 776 777 774 773 776 779 782 783 786 788 789 792 793 796 799 802 806 808 811 813 816 819 821 823 825 827 828 830 831 833 834 836 837 838 839 840 841 842 843 843 844 845 845 845 845 845 846 846 846 847 847 847 848 848 848 848 848 848 848 848 848 848 848 848 848 847 847 847 847 847
748 749 760 777 774 756 740 742 745 748 748 736 729 727 728 729 727 732 735 747 748 735 736 734 738 759 769 773 779 771 771 777 778 782 784 786 788 790 793 794 798 800 804 806 809 812 814 817 819 821 823 825 827 828 830 832 834 835 836 838 838 840 840 841 842 843 844 844 845 845 845 845 846 846 846 847 847 847 847 848 848 848 848 848 848 848 848 848 848 848 847 847 847 848 847 847 847
741 748 764 779 782 774 747 738 755 759 745 733 728 724 732 733 724 733 732 734 744 735 737 742 740 751 756 759 766 763 769 776 779 783 784 787 789 791 793 795 799 801 805 807 810 812 814 817 819 821 823 825 827 828 830 832 834 835 837 838 839 840 841 842 843 843 844 844 845 845 845 846 846 846 847 847 847 848 848 848 848 848 848 848 848 848 848 848 848 847 847 847 847 848 848 848 848
740 755 773 777 781 780 751 741 762 761 742 733 729 725 737 741 728 730 727 726 742 742 740 744 740 741 743 747 754 759 768 775 779 782 783 787 788 790 793 796 800 802 805 807 810 812 814 817 819 821 823 825 827 828 831 832 834 835 837 839 839 840 841 842 843 844 844 844 845 845 846 846 847 847 847 848 848 848 848 848 848 848 848 848 848 848 848 848 848 847 847 847 847 848 848 848 848
750 765 775 779 787 785 754 739 743 741 740 734 729 728 734 742 737 731 731 735 741 744 744 743 743 741 740 745 752 760 768 773 778 780 782 786 787 789 792 795 799 802 805 807 809 812 814 816 818 821 823 825 827 828 830 832 834 836 838 839 840 841 841 842 843 844 844 844 845 845 846 846 847 847 847 848 848 849 849 848 848 849 848 848 849 848 848 848 848 847 847 847 847 848 848 848 848
757 763 770 779 786 774 744 732 728 728 734 730 727 728 732 739 737 732 739 746 744 749 751 747 751 750 747 750 755 762 768 772 776 779 782 784 786 788 791 795 798 801 804 806 809 811 813 816 818 820 822 824 826 828 830 831 833 835 838 839 839 841 841 842 843 844 844 845 845 845 846 846 847 847 848 848 848 849 849 848 849 849 849 849 849 849 849 848 848 847 847 847 847 848 848 848 848
751 755 770 778 774 756 731 726 726 725 725 727 729 726 735 738 731 733 741 747 747 751 752 751 757 757 755 756 757 763 768 772 775 778 782 783 785 787 790 793 796 799 803 805 807 811 813 815 818 820 822 824 825 827 829 831 833 835 837 838 839 840 841 842 843 843 844 844 844 845 845 845 846 847 847 848 848 849 848 848 849 849 849 849 849 849 849 848 848 847 847 847 847 847 847 848 847
745 747 760 766 763 750 730 724 724 724 722 726 729 728 737 733 726 734 738 748 752 747 745 747 753 755 756 758 760 764 767 771 774 777 781 783 784 786 789 792 795 798 801 805 807 810 812 814 816 819 821 823 825 826 828 830 832 834 835 837 838 839 840 841 842 843 843 844 844 844 844 845 846 846 847 847 848 848 848 848 849 849 849 849 849 849 849 849 848 848 847 847 847 847 847 848 847
744 741 741 748 750 745 732 723 723 725 723 726 729 730 733 727 728 733 735 748 750 738 735 737 743 748 752 756 760 764 765 769 772 775 779 781 783 785 788 791 794 798 800 803 806 809 811 813 815 818 820 822 824 826 827 829 831 833 834 835 837 838 839 840 841 842 842 843 843 843 843 844 845 846 847 847 848 848 848 848 848 849 849 849 849 849 849 848 849 849 848 848 847 847 847 848 847
747 742 733 736 735 733 729 722 725 726 727 731 729 726 725 729 734 730 733 742 737 727 726 730 736 742 747 751 757 762 764 768 770 774 777 779 781 783 786 789 793 796 799 801 805 808 810 812 815 817 820 821 823 825 827 828 830 831 833 834 835 837 838 839 840 840 841 842 842 842 843 844 845 845 846 847 847 847 847 847 848 848 849 849 849 849 849 848 849 849 848 848 848 847 847 847 847
746 744 733 730 728 727 725 723 725 725 729 729 723 724 727 734 736 730 733 733 726 724 723 727 734 739 745 750 755 759 763 766 769 773 776 778 781 783 785 788 791 794 797 800 803 806 809 812 814 816 818 820 822 824 826 827 829 830 831 833 834 835 836 838 838 839 840 841 842 842 843 843 844 845 845 846 847 847 847 847 848 848 848 848 848 849 848 848 848 848 848 848 847 847 847 847 847
744 744 734 728 727 725 722 723 725 725 726 723 722 730 729 728 729 729 733 728 722 723 723 726 734 741 746 751 755 757 761 765 766 770 774 777 779 782 784 787 790 793 796 799 801 804 807 810 812 815 817 819 821 823 825 826 828 829 830 831 833 834 835 836 837 838 839 840 841 842 842 843 843 844 845 845 846 846 847 848 848 847 848 848 848 848 848 848 848 848 848 847 847 847 846 847 847
739 739 734 729 728 724 722 725 725 725 723 721 727 733 727 719 724 731 728 723 721 721 725 728 735 743 747 750 753 755 759 762 764 766 770 774 777 780 783 785 788 792 795 797 800 803 805 808 811 813 815 818 820 822 824 825 826 828 829 831 832 833 834 835 836 837 838 839 840 841 842 843 843 843 844 845 846 846 847 847 847 847 848 848 848 848 848 848 848 848 848 847 847 847 846 846 846
730 733 733 729 728 723 722 725 723 723 721 721 729 734 726 716 725 737 725 716 719 722 728 730 735 742 744 748 750 753 757 759 761 764 768 771 774 777 780 783 786 789 793 796 799 801 804 807 809 812 814 817 819 821 822 824 825 827 828 830 831 832 834 835 835 837 837 838 839 840 841 842 843 843 843 844 845 846 846 847 847 847 847 848 848 848 848 848 848 848 847 847 847 847 847 846 846
725 731 735 731 729 726 724 726 723 723 723 719 723 730 726 719 728 733 720 713 718 724 731 731 736 740 741 745 748 751 754 756 760 762 765 768 771 774 778 781 784 787 791 795 798 801 802 805 808 810 813 815 818 820 821 823 824 826 827 829 830 832 833 834 835 836 836 838 838 839 841 841 843 843 843 844 845 845 846 846 847 847 847 847 848 848 848 847 847 847 847 847 847 846 846 846 846
726 729 740 738 731 732 726 724 722 723 727 715 718 737 736 729 730 722 713 713 716 724 731 734 737 739 740 743 745 750 752 754 758 759 762 766 769 773 776 780 782 786 789 793 796 799 801 803 806 809 812 814 816 818 820 822 823 824 826 828 829 831 832 833 834 835 836 837 838 838 840 841 842 843 843 844 844 845 845 846 847 847 847 847 848 848 847 847 847 847 847 847 846 846 846 845 846
730 730 740 742 739 737 722 718 720 722 723 709 721 754 748 729 722 714 710 712 719 727 731 736 739 738 740 742 744 748 749 752 754 757 760 763 767 770 774 778 780 784 787 791 794 797 800 802 805 808 810 812 814 817 819 820 822 823 825 826 828 829 831 832 833 834 835 836 837 838 839 840 841 842 843 844 844 845 845 846 846 847 847 847 847 847 847 846 846 847 847 846 846 846 845 845 845
734 737 739 742 748 740 715 711 719 723 720 705 723 757 747 724 716 711 709 712 721 728 731 738 740 736 740 743 745 746 746 749 751 754 758 760 765 768 771 775 778 782 785 788 792 795 798 800 803 806 808 811 813 816 817 819 821 822 824 825 827 828 830 831 832 833 834 835 836 837 838 839 840 841 842 843 844 844 845 845 846 846 847 847 847 847 847 846 846 847 846 846 846 846 845 845 845
733 746 748 742 745 737 713 705 712 722 718 705 726 752 742 723 714 708 708 713 720 726 731 737 738 734 740 746 747 746 744 746 749 752 755 758 762 765 769 773 776 780 783 787 790 794 797 799 802 804 807 810 812 814 817 819 821 822 824 825 826 828 829 830 831 832 833 834 835 836 837 838 839 840 841 842 843 844 844 845 846 846 846 847 847 847 847 846 846 846 846 846 846 845 845 845 845
734 743 750 739 738 737 721 707 704 711 714 711 725 742 737 722 714 708 708 714 719 725 728 731 733 732 740 748 749 748 745 745 747 749 752 756 759 763 767 770 774 778 781 785 789 792 795 798 801 802 805 808 811 814 816 818 820 821 823 824 825 827 828 829 829 831 831 833 834 835 836 837 838 839 841 842 842 843 844 845 845 845 846 846 846 846 846 846 846 846 846 846 846 845 845 844 844
738 737 742 733 729 732 728 717 704 703 714 718 720 729 730 719 713 711 709 713 719 724 726 727 729 731 738 747 749 748 746 746 746 745 749 753 757 761 765 769 773 776 780 784 787 791 794 796 799 801 804 807 810 812 815 817 819 821 822 824 825 826 827 828 828 830 830 831 833 834 835 836 837 838 840 841 842 843 843 844 844 845 846 846 846 846 846 846 846 846 846 846 845 845 845 845 844
737 736 738 735 725 724 726 721 707 704 717 722 722 727 725 716 712 712 710 711 717 721 722 724 726 729 737 745 746 746 748 747 743 742 746 750 754 759 762 767 771 774 778 782 786 789 792 795 798 800 802 805 808 811 814 817 818 820 822 822 824 825 826 826 827 828 829 830 831 833 834 835 836 837 839 840 841 842 843 843 844 844 845 845 845 845 845 845 845 846 846 846 845 846 845 845 845
724 724 728 733 729 721 715 712 701 701 717 723 723 727 722 716 713 711 709 708 714 718 717 720 725 728 734 741 742 743 747 747 741 740 744 748 752 756 760 764 769 773 776 780 784 788 791 793 796 799 801 803 807 810 813 815 817 818 820 821 822 823 824 825 826 827 828 829 830 832 833 834 835 836 838 839 840 841 842 842 843 844 844 845 845 844 844 845 845 845 845 845 845 845 846 846 846
715 717 720 723 725 720 709 707 698 695 715 721 717 721 717 713 710 703 704 708 714 717 718 720 723 727 733 738 738 741 747 746 740 739 742 746 750 754 758 762 766 770 774 778 782 785 789 791 794 797 799 802 804 807 810 812 814 816 817 818 819 821 822 823 824 825 826 828 829 830 832 833 834 835 837 838 839 840 841 842 842 843 843 844 844 844 844 844 845 845 845 845 845 845 846 845 846
716 717 719 718 719 716 704 704 699 694 715 722 712 718 715 708 704 695 697 709 715 715 717 719 719 723 731 735 737 741 746 745 738 736 739 744 748 751 756 759 763 767 771 775 779 783 787 789 792 795 797 800 802 805 807 809 811 813 815 816 817 819 820 822 823 824 825 826 828 829 830 832 833 834 835 836 838 839 839 840 841 842 842 843 844 844 844 844 844 844 844 845 845 845 845 845 846
720 717 721 722 714 711 705 698 695 694 713 724 716 720 717 704 699 695 694 702 707 707 709 713 715 722 728 731 736 740 745 746 739 734 735 739 744 748 753 756 760 764 768 773 776 780 784 787 790 793 795 798 800 803 805 807 809 811 813 814 816 817 818 820 821 822 824 825 826 828 829 830 831 832 834 835 836 837 838 839 840 841 841 842 843 843 843 843 843 843 843 844 844 845 845 845 846
720 718 724 725 711 715 718 704 697 696 705 718 718 719 715 705 700 698 694 691 693 699 703 704 706 716 723 725 729 736 742 743 737 731 731 735 740 745 750 753 757 761 765 769 773 777 781 784 787 790 793 795 798 801 803 805 808 810 812 813 815 816 817 819 820 821 822 823 824 826 827 828 830 831 832 833 834 836 837 838 839 839 840 841 841 842 841 842 842 842 843 843 844 843 843 844 846
721 716 719 721 711 712 713 702 698 696 700 709 718 728 723 710 708 703 693 688 689 694 701 703 701 707 718 724 726 730 734 735 732 729 728 730 735 740 746 750 754 757 761 764 768 773 776 780 783 787 790 793 795 798 801 804 806 809 811 812 814 815 816 817 818 819 820 821 822 823 825 826 828 829 830 832 833 834 835 836 837 838 839 839 840 840 840 840 841 841 842 842 843 842 841 842 846
722 714 710 712 710 707 705 702 703 711 718 710 717 746 740 713 710 708 696 694 693 693 700 705 702 702 711 722 725 726 728 729 729 727 724 725 729 736 743 747 750 753 757 760 764 768 772 776 780 784 787 790 793 796 799 802 804 806 808 810 811 812 813 814 815 816 817 819 820 821 823 825 826 827 828 830 831 832 833 834 835 836 837 838 838 839 839 839 840 840 841 841 842 842 842 842 844
724 710 703 707 709 708 708 708 710 723 730 709 706 740 745 719 710 704 696 698 694 690 697 702 702 701 704 710 715 719 721 722 726 725 721 722 726 731 737 742 746 749 752 757 761 765 769 773 776 780 784 787 790 793 796 799 801 803 805 807 808 809 810 811 813 815 816 817 818 820 821 823 824 825 826 828 829 830 832 832 834 835 836 836 837 837 838 838 838 839 840 841 841 842 843 843 843
720 699 696 707 710 712 712 712 715 717 719 711 701 715 734 727 710 693 690 698 695 690 698 701 700 701 701 702 706 712 714 715 721 724 719 718 721 724 730 736 741 745 749 754 758 761 765 769 773 776 780 783 787 790 793 795 798 800 802 804 806 807 808 810 811 813 814 815 817 818 819 820 822 823 824 826 827 828 830 831 832 833 834 835 835 836 836 837 838 839 840 840 841 842 843 844 844
710 692 694 700 705 710 710 713 717 713 721 732 714 706 727 729 707 692 690 696 698 694 700 703 699 699 700 700 701 705 708 709 714 717 714 713 716 719 724 730 736 741 745 750 753 757 761 765 769 773 776 780 783 786 789 792 795 797 800 801 803 805 806 808 810 811 813 814 815 816 817 818 819 821 822 823 825 826 827 829 830 831 832 833 834 835 835 836 837 838 839 840 841 841 842 843 844
699 691 694 695 700 705 709 714 718 718 730 739 721 710 727 730 710 703 702 699 698 695 696 697 696 697 700 700 697 696 700 702 705 708 707 709 711 715 721 726 733 737 740 745 749 754 758 762 766 769 773 776 779 783 786 788 791 794 796 798 800 802 803 805 807 809 810 812 813 814 815 816 817 818 820 821 823 824 825 827 828 829 831 832 833 833 834 835 836 837 838 839 840 840 842 843 844
692 695 699 705 709 709 712 713 716 731 738 731 717 708 720 729 713 700 698 693 688 689 692 693 694 695 699 702 697 691 693 696 698 701 703 707 710 715 720 724 728 733 737 742 746 750 754 758 762 766 769 773 776 779 782 785 788 790 793 795 797 798 800 802 804 806 807 809 810 811 813 814 815 816 817 819 820 822 823 824 826 827 829 830 831 832 833 833 834 835 837 838 839 840 841 842 843
691 699 705 719 725 721 725 723 725 744 742 722 710 704 714 727 713 692 683 676 673 678 685 688 693 694 695 700 696 687 688 692 694 698 701 705 709 713 717 721 725 729 733 738 742 746 750 753 757 761 765 769 772 775 778 781 784 787 789 792 794 795 797 799 801 803 804 806 808 809 810 812 813 814 815 817 818 819 821 822 824 825 827 828 829 830 831 832 833 834 835 836 838 839 840 841 842
694 701 709 728 737 739 746 742 736 742 732 712 703 706 714 713 697 685 678 670 665 666 669 675 683 685 689 696 692 683 684 688 691 695 698 701 706 709 712 716 721 725 728 732 736 740 744 748 752 756 760 764 767 771 774 778 781 783 786 788 790 792 794 796 798 800 801 803 805 806 807 809 810 811 812 814 815 817 818 820 821 823 824 825 827 828 829 830 831 832 834 835 836 837 838 840 841
698 702 709 727 736 747 758 747 737 735 722 705 696 702 713 704 686 677 672 667 660 656 659 664 668 670 678 687 686 681 680 683 687 690 694 697 700 704 707 712 716 719 723 726 731 735 739 743 747 750 755 759 763 766 770 773 776 779 782 785 787 789 790 792 794 796 798 800 801 803 804 805 807 808 809 811 812 814 816 817 819 820 822 823 825 826 827 828 830 830 832 833 835 836 837 838 840
693 689 697 715 717 728 742 735 732 731 717 704 699 704 711 705 684 664 658 659 654 653 653 654 658 658 664 675 681 680 679 679 683 687 689 691 694 698 703 707 712 715 718 722 726 730 734 738 741 745 749 754 758 761 765 768 772 775 778 781 783 785 787 789 791 793 795 796 798 799 801 802 804 805 806 808 810 812 813 815 816 818 819 821 822 824 825 826 828 829 830 831 833 834 835 836 838
689 681 693 707 698 699 711 710 707 710 711 705 701 701 693 682 669 653 652 654 651 655 653 651 658 656 657 671 679 680 677 675 680 684 686 687 690 694 698 703 708 712 716 718 721 725 728 732 736 740 744 748 752 756 759 763 767 771 774 776 779 781 784 785 787 789 791 793 795 796 798 799 801 802 804 805 807 809 810 812 813 815 817 819 820 821 823 824 825 827 828 829 830 832 833 834 836
685 687 694 689 676 683 701 706 694 697 715 706 690 694 687 677 672 658 657 660 653 656 657 655 659 658 659 669 675 677 674 671 675 679 681 683 686 690 694 698 703 707 711 713 716 719 722 726 731 735 740 744 747 751 755 759 763 766 769 771 774 777 779 781 783 785 787 789 791 793 794 796 797 799 801 802 804 805 807 809 810 812 814 816 817 819 820 821 823 824 826 827 828 829 831 832 834
678 690 685 674 676 682 694 711 708 710 726 709 686 692 694 696 693 668 661 670 661 655 657 656 658 660 661 664 668 672 670 667 669 671 675 678 681 685 689 692 696 700 704 707 711 715 718 722 726 730 734 738 742 746 750 754 758 761 764 766 770 772 775 777 779 781 784 786 788 789 791 792 794 796 797 799 801 802 804 806 807 809 811 812 814 816 818 819 820 822 823 825 826 827 828 830 831
663 671 666 673 695 700 698 712 717 718 727 714 695 691 688 691 688 670 664 670 663 657 656 656 657 658 659 659 660 664 665 664 665 667 671 674 677 680 683 687 690 694 698 703 708 713 716 719 722 725 729 732 737 741 745 749 752 755 759 761 765 767 770 773 775 778 780 782 783 785 786 788 790 792 794 796 798 799 801 803 804 806 808 809 811 813 815 816 818 819 821 822 823 825 826 827 828
657 660 660 667 683 690 694 700 703 709 718 714 704 698 688 674 664 660 661 659 658 659 658 657 654 652 653 654 653 657 661 661 661 663 667 669 671 673 676 681 685 690 696 701 705 709 712 716 719 722 725 728 733 737 740 744 747 750 753 756 760 763 765 768 771 774 776 777 779 781 782 784 787 789 791 792 794 796 798 799 801 803 805 806 808 810 811 813 815 817 818 819 821 822 824 824 826
667 671 671 672 673 675 682 686 685 694 706 707 705 701 682 653 640 646 651 650 651 653 654 656 651 646 647 648 648 652 656 657 656 657 660 663 665 667 672 678 682 687 693 697 700 703 707 711 714 717 721 724 727 731 734 738 741 745 748 751 754 757 760 764 766 769 771 773 775 777 779 781 783 785 787 789 790 792 794 796 798 800 801 803 805 807 808 810 812 814 815 817 818 819 821 822 823
661 668 666 668 672 676 690 696 684 682 692 696 699 701 677 644 634 641 643 644 645 645 647 650 648 645 643 642 644 647 651 653 653 652 654 658 662 664 668 675 679 683 687 691 694 698 701 705 708 712 716 718 721 724 728 732 735 739 742 745 749 752 756 759 762 765 767 769 771 773 775 777 779 781 783 785 786 788 790 793 794 796 798 800 802 803 805 807 808 810 812 813 815 816 817 819 820